www.pogodaiklimat.ru

Погода и климат >> Архив погоды >> Мали >> Йелимане


ПОГОДА в Йелимане

  • Прогноз погоды в Йелимане
  • Монитор погоды в Йелимане

АРХИВ ПОГОДЫ в Йелимане

Время (UTC), дата Ветер
(напр.,м/с)
 
Видим.   Явления Облачность Т
(С)
Тd
(С)
f
(%)
Тe
(С)
Тes
(С)
Комфортность P
(гПа)
Po
(гПа)
Тmin
(С)
Tmax
(С)
R
(мм)
R24
(мм)
S
(см)
12 17.06 Ю 3 10 км 8/0
[Ci sp]
+43.3 +6.4 11 +41 +55 опасность
перегрева
1009.7 998.6
15 17.06 СЗ 2 10 км 8/0
[Ac lent Ci sp]
+46.0 +9.1 11 +44 +54 опасность
перегрева
1007.4 996.4
18 17.06 Ю 4 10 км 5/0
[Ci sp]
+43.2 +11.1 15 +42 +43 опасность
перегрева
1006.6 995.5 +46.4
21 17.06 штиль 0 10 км 5/0
[Ci sp]
+40.0 +14.7 23 +41 +41 опасность
перегрева
1009.4 998.3
00 18.06 З 2 10 км 4/0
[Ci sp]
+37.5 +17.7 31 +41 +41 опасность
перегрева
1010.4 999.3
03 18.06 СВ 2 10 км 4/0
[Ac lent]
+35.5 +16.0 31 +38 +38 очень
душно
1010.3 999.2
06 18.06 Ю 2 10 км 3/0
[Ci sp]
+33.9 +16.3 35 +37 +37 очень
душно
1010.7 999.6 +33.9
09 18.06 ЮЗ 4 10 км ясно +34.9 +21.4 46 +43 +48 опасность
перегрева
1012.8 1001.6
12 18.06 СЗ 5 10 км ясно +38.5 +20.2 35 +44 +55 опасность
перегрева
1012.4 1001.2
15 18.06 СЗ 4 10 км 1/1 900 м
[Sc]
+42.5 +19.0 26 +46 +56 опасность
перегрева
1009.6 998.5
18 18.06 С 3 10 км 8/0
[Ac lent]
+42.9 +15.9 21 +44 +45 опасность
перегрева
1008.2 997.1 +43.8
21 18.06 Ю 3 10 км в посл. час гроза 6/0
[Ac lent Ci sp]
+34.0 +21.5 48 +42 +42 опасность
перегрева
1010.4 999.1
00 19.06 З 3 10 км {гроза} 3/0
[Ci sp]
+34.0 +20.8 46 +41 +41 опасность
перегрева
1010.9 999.7
03 19.06 штиль 0 10 км 3/0
[Ci sp]
+32.2 +21.7 54 +41 +41 опасность
перегрева
1010.7 999.5
06 19.06 ЮЗ 3 10 км 10/0
[Ac As]
+32.5 +20.7 50 +40 +40 очень
душно
1011.4 1000.2 +32.0
09 19.06 ЮЗ 7 10 км 9/0
[Ac lent]
+33.5 +22.8 54 +44 +44 опасность
перегрева
1013.3 1002.0
12 19.06 ЮЗ 6 10 км 4/0
[Ci sp]
+39.5 +20.7 34 +46 +53 опасность
перегрева
1011.8 1000.6
15 19.06 ЮЗ 4 10 км 3/0
[Ci sp]
+44.5 +11.6 15 +44 +53 опасность
перегрева
1009.3 998.2
18 19.06 штиль 0 10 км 9/0
[Ac lent]
+45.5 +12.2 14 +45 +45 опасность
перегрева
1007.3 996.2 +46.0
21 19.06 ЮЗ 4 10 км 4/0
[Ac lent]
+39.5 +16.6 26 +42 +42 опасность
перегрева
1009.2 998.0
00 20.06 Ю 4 10 км 9/0
[Ci sp]
+38.5 +16.2 27 +40 +40 очень
душно
1009.7 998.6
03 20.06 Ю 7 10 км 9/0
[Ac lent]
+35.5 +18.1 36 +39 +39 очень
душно
1009.5 998.4
06 20.06 Ю 7 10 км 9/0
[Ac lent Ci sp]
+32.8 +19.7 46 +39 +39 очень
душно
1010.1 999.0 +32.5
09 20.06 ЮЗ 4 10 км 1/0
[Ci sp]
+34.0 +19.4 42 +39 +45 очень
душно
1011.5 1000.3
12 20.06 ЮЗ 3 10 км ясно +39.4 +16.0 25 +41 +58 опасность
перегрева
1010.7 999.6
15 20.06 ЮЗ 3 10 км 4/0
[Ci sp]
+43.0 +15.4 20 +44 +56 опасность
перегрева
1008.8 997.7
18 20.06 ЮЗ 3 10 км 4/0
[Ci sp]
+43.0 +14.9 20 +44 +45 опасность
перегрева
1007.4 996.3 +44.2
21 20.06 штиль 0 10 км 6/0
[Ci sp]
+39.5 +14.6 23 +40 +40 очень
душно
1008.1 996.9
00 21.06 штиль 0 10 км 4/0
[Ci sp]
+35.0 +16.0 32 +37 +37 очень
душно
1009.7 998.5
03 21.06 В 1 10 км 4/0
[Ci sp]
+33.2 +16.3 36 +36 +36 очень
душно
1008.8 997.7
06 21.06 ЮЗ 4 10 км 4/0
[Ac lent Ci sp]
+33.0 +13.4 31 +34 +34 очень
жарко
1010.2 999.0 +32.0
09 21.06 З 5 10 км 6/0
[Ci sp]
+34.8 +21.6 46 +43 +46 опасность
перегрева
1011.9 1000.7
12 21.06 З 4 10 км 6/0
[Ci sp]
+38.8 +19.5 33 +44 +56 опасность
перегрева
1011.3 1000.1
15 21.06 ЮЗ 3 10 км 8/0
[Ci sp]
+41.6 +17.0 24 +44 +54 опасность
перегрева
1008.9 997.7
18 21.06 ЮЗ 3 10 км 8/0
[Ci sp]
+42.0 +15.9 22 +43 +45 опасность
перегрева
1008.1 996.9 +43.5
21 21.06 З 4 10 км 3/0
[Ci sp]
+38.0 +15.9 27 +40 +40 очень
душно
1009.8 998.6
00 22.06 В 2 10 км 3/0
[Ci sp]
+34.5 +16.7 35 +37 +37 очень
душно
1010.0 998.8
03 22.06 В 2 10 км 9/0
[Ac As]
+34.0 +17.0 36 +37 +37 очень
душно
1009.9 998.7
06 22.06 З 3 10 км 8/0
[Ac As]
+33.0 +17.7 40 +37 +37 очень
душно
1011.5 1000.3 +33.0
09 22.06 З 5 10 км ясно +33.8 +19.1 42 +39 +43 очень
душно
1012.8 1001.5
12 22.06 СЗ 6 10 км ясно +37.5 +17.9 32 +41 +49 опасность
перегрева
1012.1 1000.8
15 22.06 СЗ 5 10 км ясно +40.9 +15.7 23 +42 +50 опасность
перегрева
1009.7 998.5
18 22.06 СЗ 5 10 км ясно +41.3 +13.2 19 +41 +42 опасность
перегрева
1007.5 996.3 +42.6
21 22.06 З 3 10 км ясно +38.3 +15.2 26 +40 +40 очень
душно
1009.2 998.0
00 23.06 ЮЗ 3 10 км 4/0
[Ci sp]
+37.2 +13.9 25 +38 +38 душно 1011.0 999.8
03 23.06 ЮЗ 6 10 км 8/0
[Ci sp]
+30.6 +20.8 56 +38 +38 очень
душно
1011.3 1000.0
06 23.06 ЮЗ 4 10 км 8/0
[Ci sp]
+28.5 +21.6 66 +36 +36 очень
душно
1012.1 1000.8 +28.5
09 23.06 ЮЗ 8 10 км 9/0
[Ci sp]
+31.0 +20.6 54 +38 +39 очень
душно
1012.4 1001.1
12 23.06 ЮЗ 8 10 км 9/0
[Ci sp]
+35.5 +19.1 38 +40 +43 очень
душно
1011.3 1000.1
15 23.06 ЮЗ 6 10 км 9/0
[Ci sp]
+39.5 +16.6 26 +42 +46 опасность
перегрева
1009.3 998.0
18 23.06 З 4 10 км 9/0
[Ci sp]
+40.0 +15.2 23 +41 +42 опасность
перегрева
1008.3 997.0 +41.0
21 23.06 штиль 0 10 км 9/0
[Ci sp]
+37.5 +16.9 30 +40 +40 очень
душно
1009.6 998.3
00 24.06 штиль 0 10 км 6/0
[Ci sp]
+35.0 +15.3 31 +37 +37 очень
душно
1010.2 998.9
03 24.06 Ю 3 10 км 4/0
[Ci sp]
+33.2 +18.5 42 +38 +38 очень
душно
1009.1 997.9
06 24.06 ЮЗ 5 10 км 4/0
[Ci sp]
+31.5 +20.4 52 +38 +38 очень
душно
1010.1 998.9 +31.0

 

Местоположение метеостанции Йелимане (Мали): широта 15.12 долгота -10.56 высота над уровнем моря 100 м.

В архиве по умолчанию представлена погода в Йелимане за последнюю неделю. Архивные данные за месяц целиком и за предыдущие месяцы, начиная с января 2011 года, Вы можете получить, выбрав интересующий диапазон дат из раскрывающегося списка и нажав кнопку "Ввод!".


*Определитесь, кто Вы:
робот инопланетянин человек

Внимание! Время в таблицах - всемирное. Для получения местного времени необходимо прибавить поправку, которая равна 0 ч.

Смотрите также архив погоды в соседних городах и на ближайших метеорологических станциях:

Погода в Каесе (Мали) (121 км)
Погода в Ниоро-Дю-Сахель (Мали) (130 км)
Погода в Киффе (Мавритания) (190 км)
Погода в Аюн-эль-Атрус (Мавритания) (204 км)
Погода в Ките (Мали) (257 км)
Погода в Кеньебе (Мали) (263 км)
Погода в Матаме (Сенегал) (294 км)
Погода в Кедугу (Сенегал) (335 км)
Погода в Фатото (Гамбия) (335 км)
Погода в Каэди (Мавритания) (336 км)

Пояснения к столбцам:

Ветер - указаны скорость ветра в м/с - средняя за 10 мин, порывы в срок и между сроками (в фигурных скобках) и направление, откуда дует ветер: С - северный, СВ - северо-восточный, В - восточный, ЮВ - юго-восточный, Ю - южный, ЮЗ - юго-западный, З - западный, СЗ - северо-западный.
Видимость - горизонтальная дальность видимости в метрах или километрах. При видимости от 1 до 10 км при отсутствии осадков обычно наблюдается дымка, при ухудшении видимости до 1 км и менее - туман. В сухую погоду видимость может ухудшаться дымом, пылью или мглою.
Явления - указаны атмосферные явления, наблюдавшиеся в срок или в последний час перед сроком; фигурными скобками обозначены явления, наблюдавшиеся между сроками (за 1-3 часа до срока); квадратными скобками обозначены град или гололедные отложения с указанием их диаметра в мм.
Облачность - указаны через наклонную черту общая и нижняя облачность в баллах и высота нижней границы облаков в метрах; квадратными скобками обозначены формы облаков: Ci - перистые, Cs - перисто-слоистые, Cc - перисто-кучевые, Ac - высококучевые, As - высокослоистые, Sc - слоисто-кучевые, Ns - слоисто-дождевые, Cu - кучевые, Cb - кучево-дождевые. Подробнее классификацию облаков см. в Атласе облаков (PDF).
T - Температура воздуха - температура, измеренная на высоте 2 м над землей.
Td - Температура точки росы - температура, при понижении до которой содержащийся в воздухе водяной пар достигнет насыщения.
f - Относительная влажность воздуха - влажноcть воздуха, измеренная на высоте 2 м над землей.
Te - Эффективная температура - температура, которую ощущает одетый по сезону человек в тени. Характеристика душности погоды. При расчете учитывается влияние влажности воздуха и скорости ветра на теплоощущения человека.
Tes - Эффективная температура на солнце - температура, которую ощущает человек, с поправкой на солнечный нагрев. Характеристика знойности погоды. Зависит от высоты солнца над горизонтом, облачности и скорости ветра. Ночью, в пасмурную погоду, а также при ветре 12 м/с и более поправка равна нулю.
P - Атмосферное давление - приведенное к уровню моря атмосферное давление.
Po - Атмосферное давление - измеренное на уровне метеостанции атмосферное давление.
Tmin - Минимальная температура - минимум температуры воздуха на высоте 2 м над землей.
Tmax - Максимальная температура - максимум температуры воздуха на высоте 2 м над землей.
R - Количество осадков - Количество выпавших осадков за период времени, мм. При наведении курсора мыши на число - период времени, за который выпало указанное количество осадков.
R24 - Количество осадков - Количество выпавших осадков за 24 часа, мм.
S - Снежный покров - Высота снежного покрова, см. При наведении курсора мыши на число - состояние снежного покрова и степень покрытия местности в баллах.